,,Stat5,,Stat1,,Stat2,,Stat3,,Stat4,,Wind1,,Wind1,
time,status,PA1M_AVG,status,PR1M_SUM,status,RH1M_AVG,status,SR1M_AVG,status,TA1M_AVG,status,W1dAve1m,status,W1sAve1m,
2000-10-12, 00:00:00,VALID,918.539,VALID,0,VALID,95.7556,VALID,-0.0339617,VALID,19.5951,VALID,126,VALID,0.157986,
2000-10-12, 00:01:00,VALID,918.539,VALID,0,VALID,95.8205,VALID,-0.0509425,VALID,19.5889,VALID,119,VALID,0.424409,
2000-10-12, 00:02:00,VALID,918.527,VALID,0,VALID,96.118,VALID,-0.0169808,VALID,19.5722,VALID,116,VALID,0.4483,
2000-10-12, 00:03:00,VALID,918.511,VALID,0,VALID,96.4385,VALID,0,VALID,19.5857,VALID,114,VALID,0.170898,
2000-10-12, 00:04:00,VALID,918.503,VALID,0,VALID,96.4919,VALID,0,VALID,19.5792,VALID,102,VALID,0.319853,
2000-10-12, 00:05:00,VALID,918.487,VALID,0,VALID,96.5758,VALID,-0.0169808,VALID,19.569,VALID,94,VALID,0.535473,
2000-10-12, 00:06:00,VALID,918.474,VALID,0,VALID,96.5479,VALID,-0.0169808,VALID,19.5752,VALID,84,VALID,0.575921,
2000-10-12, 00:07:00,VALID,918.451,VALID,0,VALID,96.38,VALID,-0.0169808,VALID,19.5785,VALID,87,VALID,0.534152,
2000-10-12, 00:08:00,VALID,918.455,VALID,0,VALID,96.2808,VALID,0,VALID,19.5916,VALID,77,VALID,0.603966,
2000-10-12, 00:09:00,VALID,918.453,VALID,0,VALID,96.3202,VALID,0,VALID,19.5819,VALID,85,VALID,0.770759,
2000-10-12, 00:10:00,VALID,918.428,VALID,0,VALID,96.2541,VALID,-0.0169808,VALID,19.5889,VALID,93,VALID,0.759215,
2000-10-12, 00:11:00,VALID,918.427,VALID,0,VALID,96.1816,VALID,-0.0339617,VALID,19.5792,VALID,87,VALID,1.02322,
2000-10-12, 00:12:00,VALID,918.41,VALID,0,VALID,96.2121,VALID,0,VALID,19.5725,VALID,81,VALID,0.999809,
2000-10-12, 00:13:00,VALID,918.399,VALID,0,VALID,96.2706,VALID,-0.0169808,VALID,19.5886,VALID,87,VALID,0.933694,
2000-10-12, 00:14:00,VALID,918.366,VALID,0,VALID,96.2973,VALID,0,VALID,19.5951,VALID,85,VALID,0.865337,
2000-10-12, 00:15:00,VALID,918.35,VALID,0,VALID,96.2923,VALID,-0.0509425,VALID,19.5953,VALID,86,VALID,0.763021,
2000-10-12, 00:16:00,VALID,918.327,VALID,0,VALID,96.3317,VALID,-0.0169808,VALID,19.605,VALID,80,VALID,0.722862,
2000-10-12, 00:17:00,VALID,918.315,VALID,0,VALID,96.3507,VALID,0,VALID,19.6145,VALID,81,VALID,0.626603,
2000-10-12, 00:18:00,VALID,918.297,VALID,0,VALID,96.3355,VALID,0,VALID,19.6212,VALID,88,VALID,0.358789,
2000-10-12, 00:19:00,VALID,918.275,VALID,0,VALID,96.2516,VALID,0,VALID,19.6304,VALID,99,VALID,0.530405,
2000-10-12, 00:20:00,VALID,918.269,VALID,0,VALID,96.2083,VALID,0,VALID,19.6304,VALID,105,VALID,0.560156,
2000-10-12, 00:21:00,VALID,918.259,VALID,0,VALID,96.188,VALID,0,VALID,19.6373,VALID,100,VALID,0.633814,
2000-10-12, 00:22:00,VALID,918.248,VALID,0,VALID,96.0417,VALID,0.0169808,VALID,19.6403,VALID,103,VALID,0.698808,
2000-10-12, 00:23:00,VALID,918.236,VALID,0,VALID,96.0545,VALID,-0.0339617,VALID,19.6406,VALID,96,VALID,0.634615,
2000-10-12, 00:24:00,VALID,918.232,VALID,0,VALID,96.0583,VALID,-0.0169808,VALID,19.6607,VALID,97,VALID,0.539679,
2000-10-12, 00:25:00,VALID,918.23,VALID,0,VALID,95.9934,VALID,0,VALID,19.647,VALID,93,VALID,0.504407,
2000-10-12, 00:26:00,VALID,918.221,VALID,0,VALID,95.9553,VALID,-0.0339617,VALID,19.6637,VALID,86,VALID,0.673242,
2000-10-12, 00:27:00,VALID,918.212,VALID,0,VALID,96.071,VALID,-0.0339617,VALID,19.6893,VALID,81,VALID,0.820735,
2000-10-12, 00:28:00,VALID,918.195,VALID,0,VALID,96.0685,VALID,0,VALID,19.7509,VALID,66,VALID,0.887891,
2000-10-12, 00:29:00,VALID,918.18,VALID,0,VALID,95.7162,VALID,-0.0339617,VALID,19.783,VALID,81,VALID,1.00401,
2000-10-12, 00:30:00,VALID,918.166,VALID,0,VALID,95.5484,VALID,-0.0169808,VALID,19.8056,VALID,91,VALID,0.822574,
2000-10-12, 00:31:00,VALID,918.172,VALID,0,VALID,95.186,VALID,-0.0169808,VALID,19.7986,VALID,86,VALID,0.655449,
2000-10-12, 00:32:00,VALID,918.165,VALID,0,VALID,95.2788,VALID,0,VALID,19.7927,VALID,87,VALID,0.773849,
2000-10-12, 00:33:00,VALID,918.158,VALID,0,VALID,95.5484,VALID,0,VALID,19.7894,VALID,86,VALID,1.00962,
2000-10-12, 00:34:00,VALID,918.161,VALID,0,VALID,95.5128,VALID,0,VALID,19.8081,VALID,83,VALID,0.89082,
2000-10-12, 00:35:00,VALID,918.163,VALID,0,VALID,95.3309,VALID,-0.0339617,VALID,19.8091,VALID,106,VALID,0.677365,
2000-10-12, 00:36:00,VALID,918.163,VALID,0,VALID,95.3182,VALID,-0.0169808,VALID,19.7929,VALID,96,VALID,0.380664,
2000-10-12, 00:37:00,VALID,918.157,VALID,0,VALID,95.467,VALID,-0.0509425,VALID,19.786,VALID,88,VALID,0.448918,
2000-10-12, 00:38:00,VALID,918.136,VALID,0,VALID,95.3449,VALID,0,VALID,19.7894,VALID,80,VALID,0.327714,
2000-10-12, 00:39:00,VALID,918.129,VALID,0,VALID,95.4072,VALID,-0.0169808,VALID,19.783,VALID,91,VALID,0.371595,
2000-10-12, 00:40:00,VALID,918.124,VALID,0,VALID,95.556,VALID,0,VALID,19.7792,VALID,108,VALID,0.00863487,
2000-10-12, 00:41:00,VALID,918.121,VALID,0,VALID,95.4911,VALID,-0.0169808,VALID,19.7855,VALID,107,VALID,0,
2000-10-12, 00:42:00,VALID,918.117,VALID,0,VALID,95.3055,VALID,0,VALID,19.7825,VALID,107,VALID,0,
2000-10-12, 00:43:00,VALID,918.125,VALID,0,VALID,95.2724,VALID,0,VALID,19.7768,VALID,107,VALID,0,
2000-10-12, 00:44:00,VALID,918.137,VALID,0,VALID,95.4059,VALID,0,VALID,19.7696,VALID,116,VALID,0.105469,
2000-10-12, 00:45:00,VALID,918.147,VALID,0,VALID,95.3678,VALID,-0.0169808,VALID,19.7658,VALID,119,VALID,0.259415,
2000-10-12, 00:46:00,VALID,918.134,VALID,0,VALID,95.35,VALID,0,VALID,19.7698,VALID,128,VALID,0,
2000-10-12, 00:47:00,VALID,918.149,VALID,0,VALID,95.1656,VALID,0,VALID,19.7532,VALID,176,VALID,0,
2000-10-12, 00:48:00,VALID,918.146,VALID,0,VALID,95.1224,VALID,0,VALID,19.7208,VALID,182,VALID,0,
2000-10-12, 00:49:00,VALID,918.141,VALID,0,VALID,94.9736,VALID,0,VALID,19.6952,VALID,192,VALID,0,
2000-10-12, 00:50:00,VALID,918.112,VALID,0,VALID,94.999,VALID,-0.0339617,VALID,19.6505,VALID,192,VALID,0,
2000-10-12, 00:51:00,VALID,918.104,VALID,0,VALID,95.1287,VALID,-0.0339617,VALID,19.6021,VALID,192,VALID,0,
2000-10-12, 00:52:00,VALID,918.066,VALID,0,VALID,95.4034,VALID,-0.0339617,VALID,19.576,VALID,192,VALID,0,
2000-10-12, 00:53:00,VALID,918.037,VALID,0,VALID,95.5471,VALID,-0.0169808,VALID,19.5439,VALID,191,VALID,0,
2000-10-12, 00:54:00,VALID,918.008,VALID,0,VALID,95.603,VALID,0,VALID,19.5081,VALID,192,VALID,0,
2000-10-12, 00:55:00,VALID,917.978,VALID,0,VALID,95.7556,VALID,0,VALID,19.4664,VALID,192,VALID,0,
2000-10-12, 00:56:00,VALID,917.949,VALID,0,VALID,95.9769,VALID,-0.0169808,VALID,19.4343,VALID,192,VALID,0,
2000-10-12, 00:57:00,VALID,917.939,VALID,0,VALID,96.0786,VALID,-0.0339617,VALID,19.4122,VALID,191,VALID,0,
2000-10-12, 00:58:00,VALID,917.912,VALID,0,VALID,96.2363,VALID,-0.0169808,VALID,19.3926,VALID,192,VALID,0,
2000-10-12, 00:59:00,VALID,917.882,VALID,0,VALID,96.4143,VALID,-0.0169808,VALID,19.3861,VALID,192,VALID,0,
2000-10-12, 01:00:00,VALID,917.867,VALID,0,VALID,96.3965,VALID,0,VALID,19.36,VALID,192,VALID,0,
2000-10-12, 01:01:00,VALID,917.827,VALID,0,VALID,96.4029,VALID,-0.0169808,VALID,19.3339,VALID,191,VALID,0,
2000-10-12, 01:02:00,VALID,917.822,VALID,0,VALID,96.4538,VALID,0,VALID,19.3118,VALID,193,VALID,0,
2000-10-12, 01:03:00,VALID,917.809,VALID,0,VALID,96.4652,VALID,-0.0169808,VALID,19.2862,VALID,226,VALID,0,
2000-10-12, 01:04:00,VALID,917.793,VALID,0,VALID,96.3253,VALID,0,VALID,19.2469,VALID,248,VALID,0,
2000-10-12, 01:05:00,VALID,917.797,VALID,0,VALID,96.2554,VALID,0,VALID,19.192,VALID,251,VALID,0,
2000-10-12, 01:06:00,VALID,917.776,VALID,0,VALID,96.2834,VALID,0,VALID,19.1436,VALID,250,VALID,0,
2000-10-12, 01:07:00,VALID,917.772,VALID,0,VALID,96.4499,VALID,0,VALID,19.1083,VALID,250,VALID,0,
2000-10-12, 01:08:00,VALID,917.774,VALID,0,VALID,96.5529,VALID,0,VALID,19.0591,VALID,250,VALID,0,
2000-10-12, 01:09:00,VALID,917.762,VALID,0,VALID,96.7373,VALID,0,VALID,19.0402,VALID,249,VALID,0,
2000-10-12, 01:10:00,VALID,917.757,VALID,0,VALID,96.9077,VALID,0,VALID,19.0243,VALID,237,VALID,0,
2000-10-12, 01:11:00,VALID,917.762,VALID,0,VALID,96.942,VALID,0,VALID,18.9947,VALID,237,VALID,0,
2000-10-12, 01:12:00,VALID,917.753,VALID,0,VALID,96.9751,VALID,0.0169808,VALID,18.9756,VALID,237,VALID,0,
2000-10-12, 01:13:00,VALID,917.749,VALID,0,VALID,97.0425,VALID,0,VALID,18.953,VALID,233,VALID,0,
2000-10-12, 01:14:00,VALID,917.731,VALID,0,VALID,97.1633,VALID,0,VALID,18.953,VALID,230,VALID,0,
2000-10-12, 01:15:00,VALID,917.741,VALID,0,VALID,97.3362,VALID,0,VALID,18.9465,VALID,230,VALID,0,
2000-10-12, 01:16:00,VALID,917.755,VALID,0,VALID,97.4952,VALID,-0.0679233,VALID,18.9577,VALID,230,VALID,0,
2000-10-12, 01:17:00,VALID,917.773,VALID,0,VALID,97.6198,VALID,-0.0679233,VALID,18.9773,VALID,230,VALID,0,
2000-10-12, 01:18:00,VALID,917.773,VALID,0,VALID,97.6071,VALID,-0.101885,VALID,18.9743,VALID,230,VALID,0,
2000-10-12, 01:19:00,VALID,917.769,VALID,0,VALID,97.6452,VALID,-0.135847,VALID,18.9609,VALID,230,VALID,0,
2000-10-12, 01:20:00,VALID,917.771,VALID,0,VALID,97.6605,VALID,-0.101885,VALID,18.9681,VALID,230,VALID,0.321546,
2000-10-12, 01:21:00,VALID,917.762,VALID,0,VALID,97.7711,VALID,-0.118866,VALID,18.9614,VALID,229,VALID,0.603966,
2000-10-12, 01:22:00,VALID,917.756,VALID,0,VALID,97.8144,VALID,-0.101885,VALID,18.9711,VALID,229,VALID,0.485547,
2000-10-12, 01:23:00,VALID,917.762,VALID,0,VALID,97.7813,VALID,-0.118866,VALID,18.9549,VALID,226,VALID,0.437289,
2000-10-12, 01:24:00,VALID,917.772,VALID,0,VALID,97.8703,VALID,-0.118866,VALID,18.9678,VALID,222,VALID,0.466406,
2000-10-12, 01:25:00,VALID,917.793,VALID,0,VALID,98.0013,VALID,-0.101885,VALID,18.9934,VALID,220,VALID,0.18149,
2000-10-12, 01:26:00,VALID,917.802,VALID,0,VALID,98.1259,VALID,-0.101885,VALID,19.022,VALID,201,VALID,0.223067,
2000-10-12, 01:27:00,VALID,917.807,VALID,0,VALID,98.1806,VALID,-0.101885,VALID,19.0488,VALID,196,VALID,0.228365,
2000-10-12, 01:28:00,VALID,917.801,VALID,0,VALID,98.2009,VALID,-0.101885,VALID,19.065,VALID,196,VALID,0.0390625,
2000-10-12, 01:29:00,VALID,917.802,VALID,0,VALID,98.2391,VALID,-0.135847,VALID,19.0779,VALID,196,VALID,0,
2000-10-12, 01:30:00,VALID,917.787,VALID,0,VALID,98.3039,VALID,-0.169808,VALID,19.1075,VALID,199,VALID,0.000976563,
2000-10-12, 01:31:00,VALID,917.786,VALID,0,VALID,98.3332,VALID,-0.0339617,VALID,19.1155,VALID,205,VALID,0.0105574,
2000-10-12, 01:32:00,VALID,917.772,VALID,0,VALID,98.3879,VALID,0,VALID,19.148,VALID,210,VALID,0.447461,
2000-10-12, 01:33:00,VALID,917.779,VALID,0,VALID,98.4451,VALID,0,VALID,19.1602,VALID,216,VALID,0.529247,
2000-10-12, 01:34:00,VALID,917.762,VALID,0,VALID,98.4896,VALID,-0.0169808,VALID,19.1865,VALID,200,VALID,0.48602,
2000-10-12, 01:35:00,VALID,917.76,VALID,0,VALID,98.501,VALID,-0.0509425,VALID,19.2091,VALID,188,VALID,0.650641,
2000-10-12, 01:36:00,VALID,917.751,VALID,0,VALID,98.4972,VALID,-0.0169808,VALID,19.2186,VALID,181,VALID,0.648232,
2000-10-12, 01:37:00,VALID,917.741,VALID,0,VALID,98.384,VALID,-0.0169808,VALID,19.2089,VALID,172,VALID,0.701923,
2000-10-12, 01:38:00,VALID,917.718,VALID,0,VALID,98.3332,VALID,-0.0169808,VALID,19.1863,VALID,173,VALID,0.646094,
2000-10-12, 01:39:00,VALID,917.691,VALID,0,VALID,98.3713,VALID,-0.0339617,VALID,19.196,VALID,173,VALID,0.55152,
2000-10-12, 01:40:00,VALID,917.659,VALID,0,VALID,98.412,VALID,0,VALID,19.2091,VALID,177,VALID,0.218555,
2000-10-12, 01:41:00,VALID,917.634,VALID,0,VALID,98.4298,VALID,-0.0169808,VALID,19.2154,VALID,186,VALID,0.197716,
2000-10-12, 01:42:00,VALID,917.621,VALID,0,VALID,98.4336,VALID,-0.0509425,VALID,19.2347,VALID,202,VALID,0.231291,
2000-10-12, 01:43:00,VALID,917.62,VALID,0,VALID,98.4031,VALID,-0.0169808,VALID,19.2315,VALID,204,VALID,0.0432692,
2000-10-12, 01:44:00,VALID,917.613,VALID,0,VALID,98.3701,VALID,-0.0169808,VALID,19.2318,VALID,204,VALID,0,
2000-10-12, 01:45:00,VALID,917.634,VALID,0,VALID,98.2899,VALID,-0.0339617,VALID,19.2221,VALID,204,VALID,0,
2000-10-12, 01:46:00,VALID,917.643,VALID,0,VALID,98.2442,VALID,0.0679233,VALID,19.2171,VALID,204,VALID,0,
2000-10-12, 01:47:00,VALID,917.657,VALID,0,VALID,98.2416,VALID,0.0849042,VALID,19.2238,VALID,204,VALID,0.150127,
2000-10-12, 01:48:00,VALID,917.654,VALID,0,VALID,98.3154,VALID,0.0849042,VALID,19.2365,VALID,204,VALID,0.514453,
2000-10-12, 01:49:00,VALID,917.67,VALID,0,VALID,98.3751,VALID,0.0679233,VALID,19.2559,VALID,200,VALID,0.602764,
2000-10-12, 01:50:00,VALID,917.672,VALID,0,VALID,98.3472,VALID,0.101885,VALID,19.279,VALID,199,VALID,0.720395,
2000-10-12, 01:51:00,VALID,917.673,VALID,0,VALID,98.3281,VALID,0.0169808,VALID,19.2755,VALID,197,VALID,0.766627,
2000-10-12, 01:52:00,VALID,917.663,VALID,0,VALID,98.3319,VALID,0.0339617,VALID,19.3014,VALID,197,VALID,0.75514,
2000-10-12, 01:53:00,VALID,917.66,VALID,0,VALID,98.2582,VALID,0.0849042,VALID,19.3014,VALID,194,VALID,0.688301,
2000-10-12, 01:54:00,VALID,917.66,VALID,0,VALID,98.2238,VALID,0.0849042,VALID,19.3011,VALID,188,VALID,0.746094,
2000-10-12, 01:55:00,VALID,917.651,VALID,0,VALID,98.1285,VALID,0.0849042,VALID,19.3046,VALID,191,VALID,0.561233,
2000-10-12, 01:56:00,VALID,917.637,VALID,0,VALID,98.0509,VALID,0.101885,VALID,19.2882,VALID,196,VALID,0.64082,
2000-10-12, 01:57:00,VALID,917.621,VALID,0,VALID,97.9581,VALID,0.101885,VALID,19.2852,VALID,196,VALID,0.804888,
2000-10-12, 01:58:00,VALID,917.608,VALID,0,VALID,97.7864,VALID,0.101885,VALID,19.2624,VALID,197,VALID,0.404194,
2000-10-12, 01:59:00,VALID,917.605,VALID,0,VALID,97.5906,VALID,0.0849042,VALID,19.2241,VALID,199,VALID,0.397636,
2000-10-12, 02:00:00,VALID,917.598,VALID,0,VALID,97.5486,VALID,0.0509425,VALID,19.1886,VALID,195,VALID,0.527549,
2000-10-12, 02:01:00,VALID,917.564,VALID,0,VALID,97.555,VALID,-0.0169808,VALID,19.1701,VALID,195,VALID,0.48117,
2000-10-12, 02:02:00,VALID,917.525,VALID,0,VALID,97.644,VALID,-0.0339617,VALID,19.1639,VALID,182,VALID,0.522266,
2000-10-12, 02:03:00,VALID,917.5,VALID,0,VALID,97.7813,VALID,-0.0339617,VALID,19.1572,VALID,184,VALID,0.625,
2000-10-12, 02:04:00,VALID,917.469,VALID,0,VALID,98.0649,VALID,-0.0169808,VALID,19.1764,VALID,193,VALID,0.789453,
2000-10-12, 02:05:00,VALID,917.446,VALID,0,VALID,98.1831,VALID,0,VALID,19.2089,VALID,186,VALID,0.809495,
2000-10-12, 02:06:00,VALID,917.43,VALID,0,VALID,98.1666,VALID,0,VALID,19.2024,VALID,177,VALID,0.8419,
2000-10-12, 02:07:00,VALID,917.428,VALID,0,VALID,98.0204,VALID,0.0169808,VALID,19.1764,VALID,169,VALID,0.823718,
2000-10-12, 02:08:00,VALID,917.417,VALID,0,VALID,97.9174,VALID,0,VALID,19.1314,VALID,159,VALID,1.07998,
2000-10-12, 02:09:00,VALID,917.395,VALID,0,VALID,97.8169,VALID,-0.0339617,VALID,19.0857,VALID,153,VALID,1.26623,
2000-10-12, 02:10:00,VALID,917.39,VALID,0,VALID,97.9275,VALID,0.0169808,VALID,19.0539,VALID,150,VALID,1.28535,
2000-10-12, 02:11:00,VALID,917.387,VALID,0,VALID,98.0979,VALID,-0.0169808,VALID,19.0504,VALID,157,VALID,0.995144,
2000-10-12, 02:12:00,VALID,917.378,VALID,0,VALID,98.0738,VALID,0,VALID,19.0245,VALID,165,VALID,0.932227,
2000-10-12, 02:13:00,VALID,917.382,VALID,0,VALID,98.2086,VALID,-0.0339617,VALID,19.0089,VALID,167,VALID,0.807091,
2000-10-12, 02:14:00,VALID,917.384,VALID,0,VALID,98.3446,VALID,0,VALID,18.9913,VALID,169,VALID,0.878701,
2000-10-12, 02:15:00,VALID,917.374,VALID,0,VALID,98.3828,VALID,0,VALID,19.0052,VALID,176,VALID,0.591146,
2000-10-12, 02:16:00,VALID,917.373,VALID,0,VALID,98.3446,VALID,-0.0169808,VALID,18.9696,VALID,184,VALID,0.773643,
2000-10-12, 02:17:00,VALID,917.378,VALID,0,VALID,98.3548,VALID,0,VALID,18.9602,VALID,194,VALID,0.6873,
2000-10-12, 02:18:00,VALID,917.388,VALID,0,VALID,98.3637,VALID,0,VALID,18.9368,VALID,196,VALID,0.751172,
2000-10-12, 02:19:00,VALID,917.414,VALID,0,VALID,98.398,VALID,-0.0169808,VALID,18.9182,VALID,202,VALID,0.938133,
2000-10-12, 02:20:00,VALID,917.43,VALID,0,VALID,98.4731,VALID,0,VALID,18.8983,VALID,209,VALID,1.05762,
2000-10-12, 02:21:00,VALID,917.465,VALID,0,VALID,98.5188,VALID,0,VALID,18.912,VALID,189,VALID,0.926883,
2000-10-12, 02:22:00,VALID,917.489,VALID,0,VALID,98.5405,VALID,-0.0169808,VALID,18.8725,VALID,186,VALID,0.718544,
2000-10-12, 02:23:00,VALID,917.503,VALID,0,VALID,98.6549,VALID,-0.0339617,VALID,18.8861,VALID,181,VALID,0.956931,
2000-10-12, 02:24:00,VALID,917.519,VALID,0,VALID,98.7477,VALID,0,VALID,18.8988,VALID,185,VALID,0.573602,
2000-10-12, 02:25:00,VALID,917.52,VALID,0,VALID,98.7566,VALID,-0.0169808,VALID,18.8923,VALID,186,VALID,0.602564,
2000-10-12, 02:26:00,VALID,917.501,VALID,0,VALID,98.8049,VALID,-0.0339617,VALID,18.8923,VALID,204,VALID,0.558398,
2000-10-12, 02:27:00,VALID,917.494,VALID,0,VALID,98.8406,VALID,-0.0169808,VALID,18.902,VALID,201,VALID,0.770481,
2000-10-12, 02:28:00,VALID,917.477,VALID,0,VALID,98.9041,VALID,0,VALID,18.9249,VALID,196,VALID,0.951367,
2000-10-12, 02:29:00,VALID,917.456,VALID,0,VALID,98.9499,VALID,0,VALID,18.9438,VALID,194,VALID,0.635216,
2000-10-12, 02:30:00,VALID,917.439,VALID,0,VALID,98.9499,VALID,-0.0169808,VALID,18.9664,VALID,182,VALID,0.575452,
2000-10-12, 02:31:00,VALID,917.42,VALID,0,VALID,98.9258,VALID,-0.0339617,VALID,18.9768,VALID,188,VALID,0.576522,
2000-10-12, 02:32:00,VALID,917.39,VALID,0,VALID,98.9537,VALID,0,VALID,18.9796,VALID,201,VALID,0.629317,
2000-10-12, 02:33:00,VALID,917.372,VALID,0,VALID,98.9143,VALID,0,VALID,18.9892,VALID,205,VALID,0.460537,
2000-10-12, 02:34:00,VALID,917.345,VALID,0,VALID,98.9346,VALID,0,VALID,18.9989,VALID,199,VALID,0.766992,
2000-10-12, 02:35:00,VALID,917.315,VALID,0,VALID,98.9575,VALID,-0.0169808,VALID,19.0248,VALID,187,VALID,0.781461,
2000-10-12, 02:36:00,VALID,917.282,VALID,0,VALID,98.9397,VALID,0,VALID,19.031,VALID,198,VALID,0.750391,
2000-10-12, 02:37:00,VALID,917.27,VALID,0,VALID,98.9118,VALID,0.0169808,VALID,19.0308,VALID,199,VALID,0.653646,
2000-10-12, 02:38:00,VALID,917.251,VALID,0,VALID,98.9194,VALID,0,VALID,19.0499,VALID,207,VALID,0.797286,
2000-10-12, 02:39:00,VALID,917.248,VALID,0,VALID,98.9041,VALID,0,VALID,19.0698,VALID,215,VALID,0.575921,
2000-10-12, 02:40:00,VALID,917.242,VALID,0,VALID,98.8647,VALID,0,VALID,19.0631,VALID,198,VALID,0.27611,
2000-10-12, 02:41:00,VALID,917.212,VALID,0,VALID,98.8329,VALID,0,VALID,19.0765,VALID,197,VALID,0.353165,
2000-10-12, 02:42:00,VALID,917.198,VALID,0,VALID,98.7414,VALID,0,VALID,19.0638,VALID,194,VALID,0.00234375,
2000-10-12, 02:43:00,VALID,917.186,VALID,0,VALID,98.6447,VALID,0,VALID,19.0442,VALID,194,VALID,0,
2000-10-12, 02:44:00,VALID,917.177,VALID,0,VALID,98.6028,VALID,0,VALID,19.0248,VALID,194,VALID,0,
2000-10-12, 02:45:00,VALID,917.179,VALID,0,VALID,98.6078,VALID,0,VALID,19.0245,VALID,194,VALID,0,
2000-10-12, 02:46:00,VALID,917.161,VALID,0,VALID,98.5112,VALID,0.0169808,VALID,18.9992,VALID,194,VALID,0,
2000-10-12, 02:47:00,VALID,917.159,VALID,0,VALID,98.3306,VALID,0,VALID,18.9477,VALID,194,VALID,0,
2000-10-12, 02:48:00,VALID,917.14,VALID,0,VALID,98.1819,VALID,0,VALID,18.8958,VALID,194,VALID,0,
2000-10-12, 02:49:00,VALID,917.138,VALID,0,VALID,97.9797,VALID,-0.0339617,VALID,18.8349,VALID,194,VALID,0.178486,
2000-10-12, 02:50:00,VALID,917.11,VALID,0,VALID,97.8131,VALID,0,VALID,18.7857,VALID,194,VALID,0.03125,
2000-10-12, 02:51:00,VALID,917.087,VALID,0,VALID,97.7432,VALID,-0.0339617,VALID,18.7477,VALID,194,VALID,0,
2000-10-12, 02:52:00,VALID,917.091,VALID,0,VALID,97.8182,VALID,-0.0509425,VALID,18.7052,VALID,194,VALID,0,
2000-10-12, 02:53:00,VALID,917.086,VALID,0,VALID,97.9517,VALID,-0.0339617,VALID,18.7022,VALID,194,VALID,0,
2000-10-12, 02:54:00,VALID,917.064,VALID,0,VALID,98.0801,VALID,0,VALID,18.7052,VALID,194,VALID,0,
2000-10-12, 02:55:00,VALID,917.054,VALID,0,VALID,98.117,VALID,0,VALID,18.7025,VALID,194,VALID,0,
2000-10-12, 02:56:00,VALID,917.029,VALID,0,VALID,98.192,VALID,-0.0509425,VALID,18.7122,VALID,194,VALID,0,
2000-10-12, 02:57:00,VALID,916.993,VALID,0,VALID,98.3523,VALID,-0.0169808,VALID,18.7544,VALID,194,VALID,0,
2000-10-12, 02:58:00,VALID,916.961,VALID,0,VALID,98.3268,VALID,-0.0169808,VALID,18.7152,VALID,194,VALID,0,
2000-10-12, 02:59:00,VALID,916.933,VALID,0,VALID,98.1056,VALID,-0.0509425,VALID,18.6351,VALID,194,VALID,0,
2000-10-12, 03:00:00,VALID,916.93,VALID,0,VALID,97.9453,VALID,-0.0169808,VALID,18.5634,VALID,194,VALID,0,
2000-10-12, 03:01:00,VALID,916.917,VALID,0,VALID,97.9657,VALID,-0.0169808,VALID,18.5437,VALID,194,VALID,0,
2000-10-12, 03:02:00,VALID,916.924,VALID,0,VALID,98.1132,VALID,-0.0339617,VALID,18.5375,VALID,194,VALID,0,
2000-10-12, 03:03:00,VALID,916.929,VALID,0,VALID,98.2632,VALID,-0.0339617,VALID,18.5407,VALID,194,VALID,0,
2000-10-12, 03:04:00,VALID,916.938,VALID,0,VALID,98.3001,VALID,-0.0339617,VALID,18.5414,VALID,194,VALID,0,
2000-10-12, 03:05:00,VALID,916.927,VALID,0,VALID,98.1946,VALID,-0.0679233,VALID,18.4895,VALID,203,VALID,0,
2000-10-12, 03:06:00,VALID,916.924,VALID,0,VALID,98.2378,VALID,-0.0679233,VALID,18.4609,VALID,219,VALID,0,
2000-10-12, 03:07:00,VALID,916.926,VALID,0,VALID,98.3052,VALID,-0.0509425,VALID,18.4478,VALID,223,VALID,0,
2000-10-12, 03:08:00,VALID,916.934,VALID,0,VALID,98.2594,VALID,-0.0339617,VALID,18.4081,VALID,224,VALID,0,
2000-10-12, 03:09:00,VALID,916.929,VALID,0,VALID,98.2976,VALID,-0.0169808,VALID,18.3986,VALID,229,VALID,0,
2000-10-12, 03:10:00,VALID,916.915,VALID,0,VALID,98.4947,VALID,-0.0679233,VALID,18.4182,VALID,223,VALID,0,
2000-10-12, 03:11:00,VALID,916.914,VALID,0,VALID,98.6549,VALID,-0.0169808,VALID,18.4736,VALID,210,VALID,0,
2000-10-12, 03:12:00,VALID,916.907,VALID,0,VALID,98.735,VALID,-0.0339617,VALID,18.5025,VALID,201,VALID,0,
2000-10-12, 03:13:00,VALID,916.907,VALID,0,VALID,98.6078,VALID,-0.0509425,VALID,18.4706,VALID,201,VALID,0,
2000-10-12, 03:14:00,VALID,916.903,VALID,0,VALID,98.5036,VALID,-0.0169808,VALID,18.3989,VALID,201,VALID,0,
2000-10-12, 03:15:00,VALID,916.893,VALID,0,VALID,98.4336,VALID,-0.0679233,VALID,18.3477,VALID,201,VALID,0,
2000-10-12, 03:16:00,VALID,916.889,VALID,0,VALID,98.4934,VALID,0,VALID,18.338,VALID,201,VALID,0,
2000-10-12, 03:17:00,VALID,916.878,VALID,0,VALID,98.6702,VALID,0,VALID,18.3859,VALID,243,VALID,0,
2000-10-12, 03:18:00,VALID,916.868,VALID,0,VALID,98.7935,VALID,-0.0169808,VALID,18.4351,VALID,276,VALID,0,
2000-10-12, 03:19:00,VALID,916.859,VALID,0,VALID,98.8901,VALID,-0.0339617,VALID,18.4639,VALID,285,VALID,0,
2000-10-12, 03:20:00,VALID,916.845,VALID,0,VALID,99.0084,VALID,-0.0169808,VALID,18.5355,VALID,285,VALID,0,
2000-10-12, 03:21:00,VALID,916.826,VALID,0,VALID,99.0923,VALID,-0.0849042,VALID,18.5966,VALID,285,VALID,0,
2000-10-12, 03:22:00,VALID,916.832,VALID,0,VALID,99.1267,VALID,-0.0169808,VALID,18.6416,VALID,285,VALID,0,
2000-10-12, 03:23:00,VALID,916.825,VALID,0,VALID,99.1165,VALID,-0.0169808,VALID,18.6545,VALID,285,VALID,0,
2000-10-12, 03:24:00,VALID,916.83,VALID,0,VALID,99.0885,VALID,-0.0169808,VALID,18.6321,VALID,285,VALID,0,
2000-10-12, 03:25:00,VALID,916.821,VALID,0,VALID,99.0783,VALID,-0.0339617,VALID,18.619,VALID,285,VALID,0,
2000-10-12, 03:26:00,VALID,916.81,VALID,0,VALID,99.0707,VALID,0,VALID,18.5991,VALID,285,VALID,0,
2000-10-12, 03:27:00,VALID,916.807,VALID,0,VALID,99.0555,VALID,-0.0169808,VALID,18.5934,VALID,285,VALID,0,
2000-10-12, 03:28:00,VALID,916.8,VALID,0,VALID,99.0427,VALID,-0.0679233,VALID,18.5606,VALID,285,VALID,0,
2000-10-12, 03:29:00,VALID,916.816,VALID,0,VALID,99.0148,VALID,-0.0339617,VALID,18.5313,VALID,285,VALID,0,
2000-10-12, 03:30:00,VALID,916.812,VALID,0,VALID,99.0097,VALID,-0.0169808,VALID,18.4962,VALID,271,VALID,0,
2000-10-12, 03:31:00,VALID,916.815,VALID,0,VALID,98.9575,VALID,-0.0169808,VALID,18.4482,VALID,234,VALID,0,
2000-10-12, 03:32:00,VALID,916.813,VALID,0,VALID,98.9715,VALID,-0.0679233,VALID,18.3896,VALID,222,VALID,0,
2000-10-12, 03:33:00,VALID,916.824,VALID,0,VALID,98.9486,VALID,-0.0509425,VALID,18.3477,VALID,190,VALID,0,
2000-10-12, 03:34:00,VALID,916.827,VALID,0,VALID,99.0059,VALID,-0.0679233,VALID,18.3154,VALID,199,VALID,0,
2000-10-12, 03:35:00,VALID,916.843,VALID,0,VALID,99.1737,VALID,-0.0339617,VALID,18.3543,VALID,195,VALID,0,
2000-10-12, 03:36:00,VALID,916.863,VALID,0,VALID,99.2462,VALID,-0.0339617,VALID,18.4217,VALID,209,VALID,0,
2000-10-12, 03:37:00,VALID,916.875,VALID,0,VALID,99.2437,VALID,-0.0509425,VALID,18.4339,VALID,231,VALID,0.481971,
2000-10-12, 03:38:00,VALID,916.872,VALID,0,VALID,99.2144,VALID,-0.0169808,VALID,18.451,VALID,220,VALID,0.610742,
2000-10-12, 03:39:00,VALID,916.868,VALID,0,VALID,99.2068,VALID,0,VALID,18.4351,VALID,215,VALID,0.765625,